Butte, MT

2:45 AM MST on December 06, 2016 (GMT -0700)
Mooney

Weather History for KBTM - January, 2014

Change the Weather History Date:

Wednesday, January 22, 2014

  Actual Average Record
Temperature  
Mean Temperature 27 °F 20 °F  
Max Temperature 35 °F 32 °F 53 °F (1994)
Min Temperature 18 °F 8 °F -35 °F (1962)
Degree Days  
Heating Degree Days 38 45  
Month to date heating degree days 853 1004  
Since 1 July heating degree days 4571 4968  
Cooling Degree Days 0 0  
Month to date cooling degree days 0 0  
Year to date cooling degree days 0 0  
Moisture  
Dew Point 24 °F    
Average Humidity 74    
Maximum Humidity 92    
Minimum Humidity 56    
Precipitation  
Precipitation T in 0.01 in 0.46 in (1989)
Month to date precipitation 0.10 0.34  
Year to date precipitation 0.10 0.34  
Sea Level Pressure  
Sea Level Pressure 30.25 in    
Wind  
Wind Speed 4 mph (WNW)    
Max Wind Speed 12 mph    
Max Gust Speed 15 mph    
Visibility 8 miles    
Events Snow    
T = Trace of Precipitation, MM = Missing Value Source: NWS Daily Summary

Daily Weather History Graph

Daily Weather History Graph

Search for Another Location

Airport or City:

Trip Planner

Search our weather history database for the weather conditions in past years. The results will help you decide how hot, cold, wet, or windy it might be!

Date:

Astronomy

Jan. 22, 2014 Rise Set
Actual Time 8:02 AM MST 5:21 PM MST
Civil Twilight 7:29 AM MST 5:54 PM MST
Nautical Twilight 6:53 AM MST 6:30 PM MST
Astronomical Twilight 6:17 AM MST 7:05 PM MST
Moon No Moon Rise 10:43 AM MST (1/22)
Length of Visible Light 10h 24m
Length of Day
9h 18m
Waning Gibbous, 65% of the Moon is Illuminated
Jan 22
Waning Gibbous
Jan 23
Last Quarter
Jan 30
New
Feb 6
First Quarter
Feb 14
Full

Hourly Weather History & Observations

Time (MST) Temp. Windchill Dew Point Humidity Pressure Visibility Wind Dir Wind Speed Gust Speed Precip Events Conditions
12:53 AM 19.0 °F - 14.0 °F 81% 30.33 in 10.0 mi Calm Calm - N/A   Clear
1:53 AM 19.0 °F - 15.1 °F 85% 30.29 in 10.0 mi Calm Calm - N/A   Clear
2:53 AM 19.9 °F - 16.0 °F 85% 30.25 in 10.0 mi Calm Calm - N/A   Overcast
3:53 AM 21.9 °F - 17.1 °F 82% 30.24 in 10.0 mi Calm Calm - N/A   Overcast
4:53 AM 24.1 °F 17.0 °F 19.0 °F 81% 30.22 in 10.0 mi SSE 5.8 mph - N/A   Overcast
5:53 AM 25.0 °F 16.3 °F 18.0 °F 75% 30.22 in 10.0 mi ESE 8.1 mph - N/A   Partly Cloudy
6:53 AM 25.0 °F - 19.0 °F 78% 30.24 in 10.0 mi Calm Calm - N/A   Overcast
7:53 AM 24.1 °F - 19.9 °F 84% 30.26 in 10.0 mi Calm Calm - N/A   Overcast
8:53 AM 25.0 °F 20.7 °F 19.9 °F 81% 30.26 in 10.0 mi NW 3.5 mph - N/A   Overcast
9:53 AM 27.0 °F - 21.0 °F 78% 30.26 in 10.0 mi Calm Calm - N/A   Overcast
10:53 AM 30.0 °F - 21.0 °F 69% 30.25 in 10.0 mi Calm Calm - N/A   Overcast
11:53 AM 32.0 °F - 21.9 °F 66% 30.22 in 10.0 mi Calm Calm - N/A   Overcast
12:53 PM 35.1 °F 32.2 °F 21.0 °F 57% 30.21 in 10.0 mi NNW 3.5 mph - N/A   Overcast
1:49 PM 33.8 °F 29.6 °F 26.6 °F 75% 30.10 in 2.0 mi NW 4.6 mph - 0.00 in Snow Light Snow
1:53 PM 34.0 °F 29.8 °F 27.0 °F 75% 30.22 in 2.0 mi NW 4.6 mph - 0.00 in Snow Light Snow
2:03 PM 33.8 °F 30.8 °F 26.6 °F 75% 30.10 in 6.0 mi West 3.5 mph - 0.00 in Snow Light Snow
2:49 PM 32.0 °F 24.8 °F 28.4 °F 87% 30.11 in 2.0 mi WNW 8.1 mph - 0.00 in Snow Light Snow
2:53 PM 32.0 °F 24.8 °F 28.0 °F 85% 30.25 in 1.8 mi WNW 8.1 mph - 0.00 in Snow Light Snow
3:17 PM 32.0 °F 24.2 °F 28.4 °F 87% 30.13 in 2.5 mi WNW 9.2 mph - 0.00 in Snow Light Snow
3:25 PM 32.0 °F 24.8 °F 28.4 °F 87% 30.13 in 8.0 mi WNW 8.1 mph - 0.00 in Snow Light Snow
3:53 PM 33.1 °F 25.5 °F 27.0 °F 78% 30.25 in 10.0 mi WNW 9.2 mph - 0.00 in   Overcast
4:53 PM 32.0 °F 23.6 °F 26.1 °F 79% 30.28 in 10.0 mi WNW 10.4 mph - N/A   Overcast
5:16 PM 32.0 °F 24.8 °F 26.6 °F 80% 30.18 in 3.0 mi WNW 8.1 mph - 0.00 in Snow Light Snow
5:28 PM 30.2 °F 22.6 °F 26.6 °F 86% 30.18 in 4.0 mi WNW 8.1 mph - 0.00 in Snow Light Snow
5:53 PM 30.9 °F 22.8 °F 26.1 °F 82% 30.31 in 10.0 mi WNW 9.2 mph - 0.00 in   Overcast
6:23 PM 30.2 °F 22.6 °F 26.6 °F 86% 30.20 in 10.0 mi WNW 8.1 mph - N/A   Overcast
6:34 PM 30.2 °F 23.4 °F 26.6 °F 86% 30.21 in 10.0 mi WNW 6.9 mph - N/A   Overcast
6:44 PM 30.2 °F 23.4 °F 26.6 °F 86% 30.20 in 10.0 mi WNW 6.9 mph - N/A   Overcast
6:53 PM 30.0 °F 24.1 °F 27.0 °F 88% 30.32 in 10.0 mi NW 5.8 mph - N/A   Overcast
7:35 PM 28.4 °F 23.3 °F 26.6 °F 93% 30.23 in 10.0 mi SE 4.6 mph - N/A   Mostly Cloudy
7:53 PM 28.9 °F - 26.1 °F 89% 30.37 in 10.0 mi Calm Calm - N/A   Mostly Cloudy
8:53 PM 28.9 °F - 25.0 °F 85% 30.39 in 10.0 mi Calm Calm - N/A   Overcast
9:34 PM 28.4 °F 23.3 °F 24.8 °F 86% 30.28 in 10.0 mi WNW 4.6 mph - N/A   Overcast
9:53 PM 28.0 °F - 25.0 °F 88% 30.41 in 10.0 mi Calm Calm - N/A   Overcast
10:35 PM 28.4 °F - 24.8 °F 86% 30.31 in 10.0 mi Calm Calm - N/A   Overcast
10:53 PM 27.0 °F 19.5 °F 23.0 °F 85% 30.43 in 10.0 mi WNW 6.9 mph - N/A   Overcast
11:50 PM 26.6 °F - 24.8 °F 93% 30.33 in 10.0 mi Calm Calm - N/A   Overcast
11:53 PM 27.0 °F - 24.1 °F 89% 30.44 in 10.0 mi Calm Calm - N/A   Overcast